Location: ????????
(55.0559°N, 39.1270°E)
Time: 01:12:14
(UTC+00:00)

Cosmos 1980 Rocket - Pass Details

Date: 15 November 2025
Orbit: 829 x 848 km, 71.0° (Epoch: 12 December)

Event Time Altitude Azimuth Distance (km) Brightness Sun altitude
Exits shadow 01:38:37 16° 348° (NNW) 2,082 4.2 -27.8°
Maximum altitude 01:39:10 16° 355° (N) 2,070 4.2 -27.8°
Drops below altitude 10° 01:42:36 10° 33° (NNE) 2,467 5.1 -27.3°
Sets 01:46:05 0° 55° (NE) 3,398 6.3 -26.8°
